Location: Wildlife_Club
(35.6000°N, 81.4330°W)
Time: 21:24:43
(UTC-04:00)

A-11 Canister half - Pass Details

Date: 04 July 2019
Orbit: 1514 x 1686 km, 47.2° (Epoch: 17 August)

Event Time Altitude Azimuth Distance (km) Brightness Sun altitude
Rises 15:04:25 0° 303° (WNW) 4,858 11.8 65.9°
Reaches altitude 10° 15:07:36 10° 303° (WNW) 3,847 11.4 65.3°
Maximum altitude 15:17:20 77° 219° (SW) 1,611 11.1 63.5°
Drops below altitude 10° 15:26:42 10° 135° (SE) 3,704 11.0 61.7°
Sets 15:29:42 0° 134° (SE) 4,670 11.4 61.1°
